Погода Жамбейты

Погода Жамбейты : погода сейчас, прогноз погоды и архив. Всё, что Вы хотите узнать о погоде Жамбейты!

Хотите узнать прогноз погоды Жамбейты? Тогда Вам сюда: Погода Жамбейты

Поиск расширенной информации на нашем сайте:

Полезная информация: Фантастика, мистика, ужасы, лучшие драмы смотреть онлайн без регистрации

Другие новости

Новости СМИ2

Главная страница сайта

Новости сайта

03.07.2017

Напоминаем, что на нашем специализированном сайте Метеоцентр.Азия вы можете получить высокодетализированные автоматические прогнозы погоды по пунктам России, СНГ и мира в авиационном формате (включающие направление и скорость ветра, видимость, явления погоды, количество и форму облачности, нижнюю и верхнюю границу облачности).

Рекомендуем: печать на баннере, оригинальная печать на баннере

Погода Жамбейты - сегодня

Время (UTC), дата Ветер
(°,м/с) 
Видим.   Явления Облачность Т
(°С)
Тd
(°С)
f(%) Тe
(°С)
Pmin
(гПа)
dP
(гПа)
Po
(мм)
O2
(г/м3)
Тmin Tmax R s Состояние
почвы
12 20.08.17 360 (С) 20000 м    8/1 1000 м верхняя 
[Cu med, cong|Ci fib]
+33.2 +5 17 +33  1021.9  -0.6  764  274           
15 20.08.17 340 (С) 20000 м    3/0 верхняя 
[Ci fib]
+32 +3.8 17 +32  1021.4  -0.5  763  275    +34.3       
18 20.08.17 360 (С) н/о    ясно 
+23.1 +4 29 +23  1022.3  0.8  764  283    +34.3       
21 20.08.17 360 (С) н/о    ясно 
+17.5 +4 41 +18  1022.2  -0.2  764  289           
00 21.08.17 360 (С) н/о    ясно 
+14.6 +4.4 50 +15  1022  -0.2  764  291           
03 21.08.17 050 (СВ) 20000 м    ясно 
+14.1 +5.6 57 +14  1022.5  0.5  751  287           
06 21.08.17 020 (С) 20000 м    3/0 верхняя 
[Ci fib]
+25.6 +9.5 36 +26  1022  -0.4  764  280  +14.1         
09 21.08.17 020 (С) 20000 м    3/0 верхняя 
[Ci ing]
+29.6 +7.3 25 +30  1020.2  -1.7  763  276           
12 21.08.17 020 (С) 20000 м    3/0 верхняя 
[Ci ing]
+31.8 +4.5 18 +32  1018.4  -1.8  761  274           
15 21.08.17 050 (СВ) 20000 м    3/0 средняя 
[Ac cast]
+29.6 +7.3 25 +30  1017.6  -0.8  761  275    +32.6       
18 21.08.17 050 (СВ) н/о    ясно 
+22 +6.4 36 +22  1018.2  0.5  761  283    +32.6       
21 21.08.17 050 (СВ) н/о    ясно 
+19.1 +6.7 44 +20  1017.9  -0.4  761  285           
00 22.08.17 050 (СВ) н/о    ясно 
+16.8 +7.1 53 +18  1018.2  0.3  761  288           
03 22.08.17 090 (В) 20000 м    ясно 
+17.4 +6.1 47 +18  1018.6  0.4  751  284           
06 22.08.17 140 (ЮВ) 20000 м    ясно 
+28.8 +1.3 17 +29  1019.1  0.6  762  277  +16.3         
09 22.08.17 180 (Ю) 20000 м    ясно 
+33.4 +1.7 13 +33  1018.2  -0.8  761  273           
12 22.08.17 140 (ЮВ) 20000 м    3/3 1000 м 
[Cu hum]
+34.2 -0.6 11 +34  1017.7  -0.5  761  272           
15 22.08.17 110 (В) 20000 м    ясно 
+32.1 +1.9 15 +32  1017.7  761  274    +35.5       
18 22.08.17 070 (В) н/о    ясно 
+25.4 +4.6 26 +25  1019  1.2  762  280    +35.5       
21 22.08.17 070 (В) н/о    ясно 
+21 +4.5 34 +21  1019.7  0.6  762  284           
00 23.08.17 090 (В) н/о    ясно 
+19.4 +3.7 35 +20  1020  0.3  762  286           
03 23.08.17 090 (В) 20000 м    ясно 
+20.3 +3.9 34 +20  1021.2  1.2  763  286           
06 23.08.17 160 (Ю) 20000 м    ясно 
+30.7 +3.2 17 +31  1021.6  0.6  764  276  +18.4         
09 23.08.17 140 (ЮВ) 20000 м    3/3 1000 м 
[Cu hum]
+34.8 +1 12 +35  1020.8  -0.8  763  273           
12 23.08.17 110 (В) 20000 м  пыльный позёмок  ясно 
+35.4 +0.4 11 +35  1019.7  -1.1  762  272           
Время (UTC), дата Ветер
(°,м/с) 
Видим.   Явления Облачность Т
(°С)
Тd
(°С)
f(%) Тe
(°С)
Pmin
(гПа)
dP
(гПа)
Po
(мм)
O2
(г/м3)
Тmin Tmax R s Состояние
почвы

Для получения пояснительной информации подведите курсор к названию столбца.

ПОГОДА Жамбейты - архив

Всё, что Вы хотите узнать о погоде Жамбейты - удобно и подробно!

Выберите нужную дату (начиная с 1 января 2015* года) и нажмите кнопку "Найти".
Будут отображены архивные сводки погоды по пункту Жамбейты, начиная с указанной даты.


Отображать данные в формате CSV (для использования в таблицах Excel)


Внимание! Наш архив погоды предназначен исключительно для личного некоммерческого использования в познавательных целях. Если Вам необходимы официальные справки о состоянии погоды (для производственных, юридических, коммерческих и т.п. целей), обращайтесь в органы Росгидромета.

*Примечание: данная дата относится к архиву по метеостанциям СССР (Россия, СНГ, Балтия).
Архив по метеостанциям Зарубежной Европы и Азии (кроме Китая) хранится 10 дней, по другим регионам земного шара (Китай, Африка, Америка, Австралия, Океания) - 1 день.

Жамбейты - район местоположения метеостанции


Название, широта, долгота, высота метеостанции:
Жамбейты 50.2°ш. 52.6°д. 32 м над ур. моря [Казахстан]

Дополнительная информация

В oтличие oт бoльшинства пoгoдных сайтoв мы публикуем пoдрoбную метеoинфoрмацию в детальнoм прoфессиoнальнoм фoрмате.

Характеристики температуры и влажнoсти вoздуха измеряются на высoте 2 м в тени вдали oт зданий и деревьев.
Скoрoсть ветра измеряется на высoте 10 м (на урoвне рoста челoвека скoрoсть ветра ниже в 1.5-2 раза). Если метеoстанция нахoдится в гoрoде или в лесу, тo скoрoсть ветра занижена на 2-4 м/с пo сравнению с oткрытым местoм. Скoрoсть ветра над акватoриями крупных рек и oзёр, а также на вершинах хoлмoв на 2-5 м/с выше, чем в oбычных услoвиях.
Атмoсфернoе давление в разных тoчках местнoсти мoжет значительнo oтличаться oт давления на метеoстанции, в зависимoсти oт услoвий рельефа (при пoдъёме на 10 м давление пoнижается примернo на 1 мм рт.ст.).